Content
SEND FEEDBACK

Daily
Averages
Monthly
Summary
United States of America

WILMINGTON, NORTH CAROLINA


Home > North America > United States > North Carolina
Elevation: 21 meters     Latitude: 34 16N     Longitude: 077 54W

WEATHER
 
SELECT A DAY
Number of Records: 208,703;   Date Range: 1/1/95 - 7/23/14
 
SHARE

PRINT THIS DATA

[ ← Previous Day ]
WEATHER ALMANAC - 29 JUNE, 2013
[ Next Day → ]
[ °F ]   °C
We're sorry. There is no daily almanac available for Wilmington, North Carolina on 29 June, 2013.
WEATHER BY HOUR - 29 JUNE, 2013
[ °F ]   °C
Local TimeTemperatureDewpointHumidityBarometerVisibilityWind DirectionWind SpeedGust SpeedPrecipitationEventsConditions
12:53 AM26.1 °C23.9 °C88 %1005.1 hPa16.1 kmSSW (200°)22.2 km/hPartly Cloudy
1:53 AM26.1 °C23.9 °C88 %1005.1 hPa16.1 kmSSW (200°)20.4 km/h33.3 km/hScattered Clouds
2:53 AM26.1 °C23.3 °C84 %1004.1 hPa16.1 kmSSW (200°)20.4 km/hClear
3:34 AM26 °C23 °C83 %1004.1 hPa16.1 kmSSW (200°)27.8 km/h38.9 km/hMostly Cloudy
3:51 AM26 °C23 °C83 %1004.4 hPa16.1 kmSSW (200°)18.5 km/h33.3 km/hOvercast
3:53 AM26.1 °C23.3 °C84 %1004.4 hPa16.1 kmSSW (200°)24.1 km/h35.2 km/hOvercast
4:30 AM26 °C23 °C83 %1004.4 hPa16.1 kmSSW (210°)27.8 km/h37 km/hPartly Cloudy
4:53 AM26.1 °C22.8 °C82 %1005.1 hPa16.1 kmSSW (210°)14.8 km/h35.2 km/hMostly Cloudy
5:53 AM25.6 °C22.8 °C84 %1005.4 hPa16.1 kmSSW (210°)20.4 km/h33.3 km/hMostly Cloudy
6:03 AM26 °C23 °C83 %1005.4 hPa16.1 kmSSW (210°)16.7 km/h33.3 km/hPartly Cloudy
6:53 AM26.1 °C22.8 °C82 %1005.4 hPa16.1 kmSSW (210°)18.5 km/hClear
7:53 AM26.7 °C22.8 °C79 %1005.1 hPa16.1 kmSW (220°)18.5 km/hClear
8:53 AM26.7 °C22.2 °C76 %1006.1 hPa16.1 kmSW (220°)14.8 km/h31.5 km/hClear
9:53 AM27.2 °C21.7 °C72 %1006.4 hPa16.1 kmWSW (250°)22.2 km/h33.3 km/hPartly Cloudy
10:53 AM25.6 °C21.7 °C79 %1006.1 hPa16.1 kmWSW (240°)14.8 km/h0 mmScattered Clouds
11:53 AM26.1 °C22.2 °C79 %1006.8 hPa16.1 kmSSW (210°)13 km/h0 mmMostly Cloudy
12:53 PM26.7 °C22.2 °C76 %1006.8 hPa16.1 kmSSW (200°)20.4 km/hClear
1:53 PM27.8 °C22.2 °C71 %1006.8 hPa16.1 kmSSW (210°)22.2 km/h38.9 km/hPartly Cloudy
2:53 PM28.3 °C22.8 °C72 %1006.8 hPa16.1 kmSSW (200°)20.4 km/hMostly Cloudy
3:11 PM28 °C23 °C74 %1006.4 hPa16.1 kmSSW (200°)25.9 km/h42.6 km/hMostly Cloudy
3:20 PM28 °C22 °C70 %1006.4 hPa16.1 kmSSW (200°)27.8 km/h38.9 km/hScattered Clouds
3:53 PM28.3 °C22.8 °C72 %1006.4 hPa16.1 kmSSW (200°)29.6 km/h40.7 km/hOvercast
4:17 PM28 °C23 °C74 %1006.4 hPa16.1 kmSouth (190°)29.6 km/h42.6 km/hMostly Cloudy
4:53 PM27.8 °C22.8 °C74 %1006.4 hPa16.1 kmSouth (190°)22.2 km/h46.3 km/hMostly Cloudy
5:14 PM27 °C23 °C79 %1006.4 hPa16.1 kmSouth (190°)24.1 km/h40.7 km/hScattered Clouds
5:39 PM27 °C23 °C79 %1006.8 hPa16.1 kmSSW (200°)22.2 km/h38.9 km/hThunderstormThunderstorm
5:53 PM26.7 °C22.8 °C79 %1006.8 hPa16.1 kmSouth (190°)25.9 km/h35.2 km/hThunderstormThunderstorm
6:02 PM27 °C23 °C79 %1006.4 hPa16.1 kmSouth (190°)25.9 km/hThunderstormThunderstorm
6:04 PM27 °C23 °C79 %1006.4 hPa16.1 kmSSW (200°)27.8 km/h37 km/hMostly Cloudy
6:15 PM26 °C23 °C83 %1006.4 hPaSouth (190°)18.5 km/h0 mmRainLight Rain
6:53 PM24.4 °C21.1 °C82 %1006.8 hPa16.1 kmSW (220°)22.2 km/h0 mmPartly Cloudy
7:53 PM25 °C22.8 °C88 %1007.1 hPa16.1 kmSouth (190°)14.8 km/hPartly Cloudy
8:07 PM25 °C23 °C89 %1007.5 hPa16.1 kmSouth (190°)16.7 km/h31.5 km/hMostly Cloudy
8:48 PM26 °C23 °C83 %1007.5 hPa16.1 kmSSW (200°)20.4 km/h33.3 km/h0 mmScattered Clouds
8:53 PM25 °C22.8 °C88 %1007.5 hPa16.1 kmSSW (210°)16.7 km/h33.3 km/h0 mmRainLight Rain
9:53 PM23.3 °C21.7 °C91 %1008.1 hPa16.1 kmSouth (190°)13 km/h0.25 mmRainLight Rain
10:53 PM25 °C23.3 °C90 %1008.8 hPa16.1 kmSouth (190°)16.7 km/h0 mmPartly Cloudy
11:11 PM25 °C23 °C89 %1008.8 hPa16.1 kmSouth (180°)16.7 km/h0 mmRainLight Rain
11:21 PM25 °C23 °C89 %1009.1 hPa14.5 kmSouth (190°)22.2 km/h38.9 km/h0 mmRainLight Rain
11:53 PM24.4 °C22.8 °C91 %1009.5 hPa16.1 kmSouth (180°)24.1 km/h37 km/h0.76 mmThunderstormOvercast
Hourly data recorded from KILM, located 0 kilometers away from Wilmington, North Carolina







STORIES FROM OUR PARTNERS